Montpelier, VT

10:12 PM EDT on October 21, 2017 (GMT -0400)
Knapp State

Weather History for KMPV - October, 2010

Change the Weather History Date:

Sunday, October 3, 2010

  Actual Average Record
Temperature  
Mean Temperature 44 °F 50 °F  
Max Temperature 55 °F 61 °F 82 °F (1967)
Min Temperature 34 °F 39 °F 28 °F (1955)
Degree Days  
Heating Degree Days 20 15  
Month to date heating degree days 43  
Since 1 July heating degree days 398  
Cooling Degree Days 0 0  
Month to date cooling degree days 0  
Year to date cooling degree days 263  
Moisture  
Dew Point 36 °F    
Average Humidity 82    
Maximum Humidity 100    
Minimum Humidity 43    
Precipitation  
Precipitation 0.00 in 0.12 in 0.84 in (1973)
Month to date precipitation 0.35  
Year to date precipitation 28.27  
Sea Level Pressure  
Sea Level Pressure 30.28 in    
Wind  
Wind Speed 2 mph (NNE)    
Max Wind Speed 10 mph    
Max Gust Speed 18 mph    
Visibility 6 miles    
Events Fog    
T = Trace of Precipitation, MM = Missing Value Source: NWS Daily Summary

Daily Weather History Graph

Daily Weather History Graph

Search for Another Location

Airport or City:

Trip Planner

Search our weather history database for the weather conditions in past years. The results will help you decide how hot, cold, wet, or windy it might be!

Date:

Astronomy

Oct. 03, 2010 Rise Set
Actual Time 6:50 AM EDT 6:27 PM EDT
Civil Twilight 6:21 AM EDT 6:56 PM EDT
Nautical Twilight 5:47 AM EDT 7:29 PM EDT
Astronomical Twilight 5:13 AM EDT 8:03 PM EDT
Moon 1:31 AM EDT (10/3) 3:59 PM EDT (10/3)
Length of Visible Light 12h 34m
Length of Day
11h 37m
Waning Crescent, 23% of the Moon is Illuminated
Oct 3
Waning Crescent
Oct 7
New
Oct 14
First Quarter
Oct 22
Full
Oct 30
Last Quarter

Hourly Weather History & Observations

Time (EDT) Temp. Windchill Dew Point Humidity Pressure Visibility Wind Dir Wind Speed Gust Speed Precip Events Conditions
12:51 AM 35.1 °F - 34.0 °F 96% 30.20 in 9.0 mi Calm Calm - N/A   Clear
12:54 AM 35.6 °F 32.8 °F 33.8 °F 93% 30.17 in 2.5 mi ENE 3.5 mph - N/A   Partly Cloudy
12:56 AM 35.6 °F 32.8 °F 33.8 °F 93% 30.17 in 1.0 mi ENE 3.5 mph - N/A   Mist
1:03 AM 35.6 °F - 33.8 °F 93% 30.17 in 0.2 mi Calm Calm - N/A Fog Fog
1:51 AM 35.1 °F - 34.0 °F 96% 30.21 in 0.2 mi Calm Calm - N/A Fog Fog
2:51 AM 34.0 °F - 34.0 °F 100% 30.21 in 0.2 mi Calm Calm - N/A Fog Fog
3:51 AM 35.1 °F 32.2 °F 33.1 °F 92% 30.22 in 0.2 mi SSW 3.5 mph - N/A Fog Fog
4:51 AM 34.0 °F - 34.0 °F 100% 30.25 in 0.5 mi Calm Calm - N/A Fog Fog
5:51 AM 34.0 °F - 34.0 °F 100% 30.25 in 0.2 mi Calm Calm - N/A Fog Fog
6:51 AM 35.1 °F - 34.0 °F 96% 30.28 in 0.2 mi Calm Calm - N/A Fog Fog
7:51 AM 35.1 °F - 35.1 °F 100% 30.30 in 0.2 mi Calm Calm - N/A Fog Fog
8:51 AM 36.0 °F - 36.0 °F 100% 30.32 in 0.2 mi Calm Calm - N/A Fog Fog
9:44 AM 37.4 °F 34.9 °F 37.4 °F 100% 30.30 in 1.2 mi NNW 3.5 mph - N/A   Overcast
9:49 AM 37.4 °F - 37.4 °F 100% 30.30 in 0.8 mi Calm Calm - N/A   Overcast
9:51 AM 37.9 °F - 37.0 °F 97% 30.34 in 0.8 mi Calm Calm - N/A   Overcast
10:02 AM 39.2 °F - 37.4 °F 93% 30.30 in 1.2 mi Calm Calm - N/A   Overcast
10:04 AM 39.2 °F - 37.4 °F 93% 30.30 in 2.0 mi Calm Calm - N/A   Overcast
10:12 AM 39.2 °F 37.0 °F 37.4 °F 93% 30.30 in 9.0 mi NNE 3.5 mph - N/A   Overcast
10:51 AM 42.1 °F - 39.9 °F 92% 30.34 in 10.0 mi Calm Calm - N/A   Overcast
11:01 AM 42.8 °F - 39.2 °F 87% 30.30 in 10.0 mi Calm Calm - N/A   Mostly Cloudy
11:20 AM 44.6 °F 42.2 °F 42.8 °F 93% 30.30 in 10.0 mi Variable 4.6 mph - N/A   Scattered Clouds
11:51 AM 50.0 °F - 39.9 °F 68% 30.33 in 10.0 mi North 6.9 mph - N/A   Clear
12:51 PM 54.0 °F - 37.9 °F 55% 30.31 in 10.0 mi NNW 6.9 mph - N/A   Clear
1:51 PM 55.9 °F - 37.0 °F 49% 30.29 in 10.0 mi NNE 6.9 mph 18.4 mph N/A   Clear
2:51 PM 55.9 °F - 34.0 °F 44% 30.29 in 10.0 mi ENE 9.2 mph - N/A   Clear
3:51 PM 55.0 °F - 33.1 °F 43% 30.28 in 10.0 mi NE 4.6 mph - N/A   Clear
4:51 PM 55.0 °F - 35.1 °F 47% 30.28 in 10.0 mi North 10.4 mph - N/A   Clear
5:51 PM 52.0 °F - 34.0 °F 50% 30.30 in 10.0 mi NNE 9.2 mph - N/A   Clear
6:51 PM 48.0 °F - 34.0 °F 58% 30.31 in 10.0 mi North 4.6 mph - N/A   Clear
7:51 PM 46.0 °F 43.9 °F 35.1 °F 66% 30.32 in 10.0 mi North 4.6 mph - N/A   Clear
8:51 PM 45.0 °F - 35.1 °F 68% 30.35 in 10.0 mi Calm Calm - N/A   Clear
9:51 PM 42.1 °F - 35.1 °F 76% 30.35 in 10.0 mi Calm Calm - N/A   Clear
10:51 PM 41.0 °F - 36.0 °F 82% 30.37 in 10.0 mi Calm Calm - N/A   Clear
11:51 PM 41.0 °F - 36.0 °F 82% 30.37 in 10.0 mi Calm Calm - N/A   Clear